Home   Weather   Ajaccio   Past weeks

Flag for France Past Weather in Ajaccio, Corsica, France — Yesterday and Last 2 Weeks

Now
63 °F

Passing clouds.


Feels Like: 63 °F
Forecast: 47 / 67 °F
Wind: 6 mph from Southwest

Location: Ajaccio Airport

Current Time: Apr 23, 2017 at 12:04:40 pm

Latest Report: Apr 23, 2017 at 11:00 am


Visibility: N/A

Pressure: 30.12 "Hg

Humidity: 56%

Dew Point: 46 °F

Location of AjaccioLocation

Past Weather in Ajaccio — Graph

°F

Ajaccio Temperature Yesterday

Maximum temperature yesterday: 64 °F (at 1:00 pm)
Minimum temperature yesterday: 41 °F (at 2:00 am)
Average temperature yesterday: 53 °F

High & Low Weather Summary for the Past Weeks

 TemperatureHumidityPressure
High72 °F (Apr 9, 6:00 pm)94% (Apr 14, 1:30 am)30.36 "Hg (Apr 14, 1:30 am)
Low39 °F (Apr 23, 4:00 am)10% (Apr 19, 6:00 pm)29.77 "Hg (Apr 18, 3:30 pm)
Average58 °F69%30.08 "Hg
* Reported Apr 8 11:00 am — Apr 23 11:00 am, Ajaccio, Weather by CustomWeather, © 2017

Note: Actual official high and low records may vary slightly from our data, if they occured in-between our weather recording intervals... More about our weather records

Advertising

Ajaccio Weather History for the Previous 24 Hours

Scroll right to see more
 ConditionsComfort  
Time TempWeatherWind HumidityBarometerVisibility
11:00 am
Sun, Apr 23
63 °FPassing clouds.6 mph56%30.12 "HgN/A
10:30 am63 °FPassing clouds.5 mph52%30.09 "HgN/A
9:30 am59 °FPassing clouds.3 mph51%30.12 "HgN/A
9:00 am55 °FPassing clouds.5 mph51%30.12 "HgN/A
8:00 am46 °FPassing clouds.9 mph62%30.12 "HgN/A
7:30 am43 °FPassing clouds.9 mph66%30.12 "HgN/A
7:00 am41 °FPassing clouds.9 mph70%30.09 "HgN/A
6:30 am41 °FPassing clouds.10 mph70%30.09 "HgN/A
6:00 am41 °FClear.8 mph70%30.09 "Hg10 mi
5:30 am41 °FClear.9 mph70%30.09 "Hg10 mi
4:30 am39 °FClear.8 mph81%30.12 "Hg10 mi
4:00 am39 °FClear.7 mph87%30.12 "Hg10 mi
3:30 am41 °FClear.6 mph81%30.12 "Hg10 mi
3:00 am43 °FClear.6 mph76%30.12 "Hg10 mi
2:30 am43 °FClear.8 mph76%30.15 "Hg10 mi
2:00 am43 °FClear.7 mph81%30.15 "Hg10 mi
1:30 am45 °FClear.8 mph76%30.18 "Hg10 mi
1:00 am45 °FClear.7 mph76%30.18 "Hg10 mi
12:30 am45 °FClear.8 mph76%30.18 "Hg10 mi
12:00 am46 °FClear.8 mph76%30.18 "Hg10 mi
11:30 pm
Sat, Apr 22
48 °FClear.7 mph66%30.18 "Hg10 mi
11:00 pm48 °FClear.7 mph71%30.18 "Hg10 mi
10:30 pm50 °FClear.7 mph71%30.18 "Hg10 mi
10:00 pm52 °FPassing clouds.5 mph72%30.21 "HgN/A
9:30 pm54 °FClear.5 mph67%30.18 "Hg10 mi
8:30 pm57 °FClear.2 mph59%30.18 "Hg10 mi
8:00 pm59 °FSunny.5 mph51%30.18 "Hg10 mi
7:30 pm59 °FSunny.9 mph63%30.18 "Hg10 mi
7:00 pm61 °FSunny.10 mph55%30.18 "Hg10 mi
6:30 pm61 °FSunny.14 mph59%30.21 "Hg10 mi
6:00 pm63 °FPassing clouds.15 mph52%30.21 "HgN/A
5:30 pm63 °FPassing clouds.14 mph56%30.21 "HgN/A
5:00 pm63 °FPassing clouds.15 mph56%30.21 "HgN/A
4:30 pm64 °FPassing clouds.15 mph56%30.21 "HgN/A
4:00 pm63 °FPassing clouds.17 mph56%30.21 "HgN/A
3:30 pm64 °FPassing clouds.16 mph52%30.24 "HgN/A
3:00 pm64 °FPassing clouds.16 mph56%30.24 "HgN/A
2:30 pm64 °FPassing clouds.16 mph52%30.24 "HgN/A
2:00 pm64 °FPassing clouds.16 mph52%30.27 "HgN/A
1:30 pm64 °FPassing clouds.15 mph52%30.27 "HgN/A
1:00 pm64 °FPassing clouds.15 mph52%30.27 "HgN/A
12:00 pm63 °FPassing clouds.10 mph52%30.30 "HgN/A
Weather by CustomWeather, © 2017

See weather overviewHow to use our weather pages